Wind_Gust
12 18 16 12 12 12 13 12 14 11 10 11 11 12 15 14 13 11 9 10 9 15 13 12 14 16 21 23 24 23 21 19 20 20 20 19 18 17 17 17 16 13 14 13 10 10 11 11 13 12 14 16 16 17 18 19 20 21 23 22 21 21 20 21 23 22 22 22 23 21 19 17 15 14 16 17 18 18 19 23 22 23 23 21 19 20
17 16 12 14 14 12 11 10 12 13 9 12 13 13 16 12 16 12 9 11 10 17 13 11 16 15 18 21 23 22 22 22 22 21 19 19 18 16 16 16 15 13 14 11 10 10 10 11 11 12 14 14 17 18 18 20 21 20 21 21 22 21 21 21 21 22 20 20 22 22 19 16 15 15 17 19 18 17 20 23 22 24 23 20 20 18
18 14 16 13 12 12 12 12 10 9 10 10 16 13 17 14 10 11 10 12 10 16 14 14 15 15 16 19 21 22 23 22 21 21 21 20 19 18 17 15 12 12 10 9 9 8 10 10 12 13 14 14 15 16 18 18 19 20 21 22 21 21 22 21 21 22 23 21 21 21 18 14 14 16 16 16 16 17 16 18 19 22 20 23 20 17
15 16 16 13 9 13 15 12 13 13 12 14 13 16 18 15 17 15 18 10 12 15 17 16 15 14 15 16 18 20 23 19 18 19 19 19 19 18 18 15 15 12 11 10 8 8 9 10 12 13 14 15 14 17 17 18 20 20 22 22 23 21 21 22 22 22 20 20 21 19 16 13 12 13 13 14 14 16 18 17 16 18 17 20 20 17
19 17 11 9 11 12 15 11 12 14 14 10 13 16 20 11 13 20 14 11 12 17 13 16 15 17 19 20 22 21 18 20 21 20 20 18 15 17 15 15 14 14 12 10 9 8 9 11 12 13 14 15 16 16 17 17 20 21 21 22 22 21 21 22 22 22 21 19 20 20 18 11 10 9 10 12 14 13 18 18 12 14 18 16 17 18
18 14 8 9 11 10 12 13 12 14 18 11 12 13 15 13 16 11 11 14 18 17 17 13 17 17 17 18 21 23 25 23 23 23 21 19 19 19 18 16 15 14 12 10 8 8 9 10 11 13 15 15 16 17 16 16 18 20 21 22 21 20 20 22 21 22 21 20 20 22 20 19 15 10 10 12 14 14 13 16 16 11 14 15 18 17
16 10 9 9 14 13 12 13 11 13 15 18 16 10 10 13 14 14 14 16 19 20 15 14 19 14 20 19 19 21 24 27 23 22 21 20 20 20 19 17 15 14 13 10 9 9 9 10 12 14 15 15 16 16 16 16 17 19 20 20 20 20 20 21 21 21 21 19 19 18 18 17 16 16 10 9 11 13 13 12 13 13 12 14 15 17
10 12 11 9 11 11 14 12 13 12 19 17 13 10 12 14 14 15 16 18 20 14 15 16 18 22 20 20 20 18 21 24 18 20 19 23 20 20 18 17 15 15 12 11 10 8 8 9 12 14 13 15 16 17 17 16 17 18 20 21 21 21 21 20 21 21 21 20 18 17 17 16 15 15 17 13 9 12 13 14 16 14 13 13 13 15
8 12 8 10 9 16 16 16 10 11 18 17 11 10 11 14 13 14 17 18 14 14 20 20 13 23 20 15 15 17 21 26 24 28 28 23 23 20 19 19 16 14 13 12 11 8 8 11 12 13 14 15 15 16 17 18 18 18 19 21 20 21 19 20 20 20 20 20 19 18 17 18 14 13 13 13 9 10 11 14 11 14 14 19 15 14
15 12 11 11 17 14 14 12 10 11 16 14 10 13 12 12 13 14 18 18 11 16 20 12 13 20 21 17 18 17 21 22 23 23 26 27 25 20 21 18 17 14 12 12 9 9 9 10 11 12 12 14 15 15 16 17 18 18 18 20 21 21 21 20 19 20 19 18 19 18 16 17 17 17 15 12 12 10 11 12 14 12 13 15 14 10
16 11 9 14 13 13 10 11 9 9 9 10 11 14 13 14 11 12 14 16 15 16 19 13 9 10 21 14 15 20 17 15 16 18 17 18 19 19 18 18 17 16 14 13 10 10 10 9 10 12 13 15 16 16 17 18 20 19 19 20 21 21 22 20 19 19 19 18 17 17 17 16 16 16 14 15 13 12 11 13 15 14 16 17 15 13
13 12 12 14 9 7 10 11 12 8 10 13 14 15 14 14 14 14 13 12 16 17 16 10 9 12 17 11 13 14 13 14 15 15 18 19 20 19 18 18 16 13 12 12 13 10 11 13 14 13 14 16 17 17 18 18 18 20 20 21 21 21 21 21 20 18 19 18 17 16 16 16 15 15 15 13 14 14 14 12 14 12 14 18 19 14
15 11 14 14 11 13 9 18 18 15 15 18 14 16 13 11 13 13 16 13 18 12 14 11 11 15 17 14 13 13 14 16 16 14 18 19 19 18 16 13 12 13 13 12 11 9 10 11 11 13 14 15 16 18 18 19 18 20 20 20 21 22 21 21 20 18 18 17 17 16 16 15 15 13 13 13 11 13 12 13 12 13 12 13 14 16
14 12 13 14 10 11 13 21 14 16 13 16 17 15 15 16 11 11 12 8 16 15 11 12 10 20 14 12 13 12 12 13 14 15 14 16 19 20 17 14 14 13 13 12 11 9 9 11 11 12 14 16 17 17 19 17 19 20 20 21 22 23 21 20 19 18 18 16 16 15 15 15 14 14 12 11 12 11 11 12 11 12 12 13 12 16
11 15 18 16 15 14 12 16 15 16 16 14 12 18 16 13 14 13 11 12 10 13 12 9 15 9 15 16 10 12 12 11 12 15 15 17 18 15 15 13 13 14 13 13 10 8 9 10 10 12 14 15 16 17 17 18 20 20 20 21 22 22 22 20 19 18 18 17 16 15 15 14 13 13 12 11 11 11 10 11 10 11 12 13 12 15
11 16 16 13 12 11 12 11 11 11 15 9 12 15 16 8 12 18 15 16 16 15 13 16 13 15 15 13 12 12 13 12 13 15 16 18 16 14 14 14 15 15 15 12 10 10 8 9 10 12 13 15 16 16 17 18 19 20 21 21 21 21 21 20 19 18 17 17 16 15 14 14 13 13 12 11 11 10 11 10 10 11 10 10 9 9
12 11 15 14 10 14 15 10 10 14 13 14 17 13 17 13 15 12 9 10 9 16 12 8 16 14 14 19 15 15 14 14 15 16 17 18 17 14 15 14 14 14 14 12 12 9 9 10 11 12 14 15 16 16 17 17 19 20 21 21 22 21 19 19 18 18 16 16 16 15 15 14 13 13 12 12 12 11 10 10 10 10 10 9 9 9
18 15 13 11 12 12 10 10 11 11 15 17 14 16 12 10 14 13 15 9 14 14 10 12 14 16 14 11 17 17 16 17 18 18 18 17 18 17 16 14 14 14 11 9 8 8 8 9 11 13 14 15 16 16 16 17 18 20 21 21 22 21 20 18 17 18 17 17 16 15 15 14 14 14 13 12 13 11 11 10 10 9 9 9 10 10
12 16 18 11 9 13 10 10 12 11 10 16 15 11 17 10 9 14 11 10 12 9 14 10 13 17 15 12 17 19 21 19 19 19 19 18 18 17 16 15 14 12 11 11 11 10 9 10 11 13 15 16 16 16 16 18 20 21 20 20 21 21 19 19 19 18 17 17 17 16 15 14 14 14 13 13 12 12 12 12 12 11 10 10 10 9
9 15 16 13 12 10 12 13 13 15 15 12 13 12 9 15 15 11 11 15 17 14 8 9 13 13 15 16 13 16 20 20 18 19 19 19 18 16 15 14 14 14 12 13 12 10 8 9 11 13 15 17 17 16 16 17 20 21 22 21 21 20 20 18 19 18 18 17 16 16 16 14 15 14 14 13 13 13 13 13 13 13 10 9 10 9
7 9 12 21 9 12 17 16 13 11 12 12 15 10 12 13 11 15 10 12 14 16 12 13 14 14 18 16 14 14 16 18 20 21 18 17 16 14 12 12 11 9 10 10 10 9 8 9 11 14 15 16 16 16 16 18 20 21 22 21 21 20 20 20 18 18 17 17 16 15 15 16 15 14 15 13 13 13 13 13 13 13 13 12 10 10
10 10 12 10 14 17 13 12 11 9 10 14 15 8 15 10 8 11 8 13 9 13 13 15 17 15 19 13 13 12 14 16 18 18 18 17 15 14 14 12 10 10 10 10 9 8 9 10 12 13 15 15 16 16 17 19 20 20 22 23 22 20 20 19 19 18 17 17 17 16 16 16 14 14 14 13 12 12 13 12 12 12 13 13 13 11
13 15 13 10 10 13 13 12 9 9 8 10 14 12 13 10 14 13 14 9 11 10 13 14 14 13 16 13 11 9 10 13 14 16 16 15 14 14 14 11 9 9 10 11 10 9 9 10 11 13 14 15 17 16 17 19 20 21 21 22 21 20 19 18 18 17 17 16 16 15 15 15 14 14 13 13 12 11 12 11 11 11 12 14 15 15
8 15 9 10 9 11 12 11 10 9 9 13 12 9 9 8 8 13 13 10 17 9 12 9 13 18 16 11 8 9 9 11 11 13 15 14 14 14 14 11 11 10 11 11 11 10 10 10 11 12 13 16 17 16 17 20 21 21 22 22 20 19 18 18 17 17 16 15 15 15 15 14 13 12 11 11 10 11 10 11 11 10 11 12 12 14
10 11 15 10 10 13 17 16 17 10 12 15 14 9 8 8 8 10 12 9 15 8 10 15 15 13 16 10 10 9 10 13 15 16 15 15 14 15 14 11 11 10 11 12 11 10 10 10 11 13 15 17 17 19 18 21 21 22 21 21 20 19 18 18 17 17 17 15 15 16 15 14 13 12 11 11 10 11 11 10 11 11 11 10 12 13
12 9 12 13 10 9 9 9 10 6 8 8 7 8 9 7 9 8 12 8 18 12 9 13 17 16 15 9 9 10 10 11 13 14 15 15 14 15 12 11 11 11 12 12 11 10 10 10 11 12 13 17 19 20 20 20 20 21 21 20 18 18 18 18 17 17 16 16 15 15 14 13 13 13 12 11 11 11 11 12 11 11 11 11 13 13
9 8 11 11 13 13 13 13 10 11 8 11 4 10 11 10 11 7 12 17 15 9 15 12 14 16 19 14 13 13 12 13 14 15 16 17 16 16 13 12 12 12 13 13 11 10 9 10 10 12 14 17 18 18 20 19 20 21 20 20 18 17 18 17 17 17 16 16 15 15 14 13 13 14 12 11 11 11 11 12 12 12 12 12 12 12
11 13 9 10 11 13 13 12 9 11 8 7 6 6 8 9 7 7 15 15 10 15 19 17 10 6 16 15 12 13 14 14 15 14 15 16 16 15 12 12 10 13 13 12 12 12 11 9 10 12 14 16 18 18 19 18 19 20 20 21 20 19 17 16 16 16 16 16 15 14 14 13 13 13 13 12 12 11 11 12 12 13 14 13 12 13
13 12 11 10 10 12 12 15 12 13 14 12 11 8 9 10 8 12 12 9 12 16 22 12 14 13 19 17 14 14 15 16 17 18 14 12 12 11 12 14 14 14 14 14 13 11 10 10 10 12 15 16 16 17 16 17 18 18 19 20 21 20 19 16 16 16 15 15 15 14 14 13 12 11 12 14 12 13 14 15 14 15 14 14 14 13
16 14 10 12 14 12 13 14 12 15 14 15 15 15 9 14 16 14 10 12 11 11 16 16 17 21 23 21 17 13 12 12 11 8 10 13 15 15 15 15 15 14 14 14 12 11 9 9 10 13 14 14 15 17 16 16 17 19 20 21 22 21 20 18 17 16 15 15 15 15 15 14 13 12 12 14 14 15 16 16 14 14 15 15 15 15
13 9 7 13 17 16 9 12 11 13 14 17 16 10 6 5 4 6 6 6 4 12 13 17 18 21 21 15 16 9 9 10 11 14 16 15 14 14 15 15 14 14 12 12 11 10 9 10 11 13 15 15 15 16 15 15 16 17 19 20 21 22 21 18 17 15 15 16 15 15 15 14 14 12 12 14 14 15 17 17 16 15 15 15 16 16
13 11 12 14 15 17 9 12 12 13 15 11 13 8 7 10 7 10 13 13 10 12 6 4 9 18 16 12 9 10 11 13 16 15 15 14 14 14 15 15 14 12 12 12 11 9 10 10 11 13 14 15 14 15 13 14 16 17 19 20 21 22 21 18 16 16 16 16 15 15 14 14 14 13 13 14 15 17 16 15 15 15 16 17 17 16
15 16 12 11 17 16 7 12 14 17 16 16 11 9 18 9 2 4 10 9 12 12 13 12 14 15 12 9 10 12 12 12 13 13 14 13 12 14 15 15 13 12 12 11 10 10 10 10 11 11 12 13 14 14 13 14 15 17 19 19 19 20 19 18 17 16 16 16 15 15 14 14 14 14 14 15 16 16 15 15 15 16 17 17 17 17
16 16 17 12 19 18 13 14 16 19 18 11 12 9 16 12 16 9 9 15 20 21 18 16 18 11 9 10 12 11 14 14 16 16 12 15 15 13 14 12 12 11 10 10 10 10 10 9 10 12 12 12 12 12 11 12 13 15 17 18 18 19 19 18 17 17 17 16 16 15 14 14 14 13 14 15 16 16 16 16 17 16 16 16 17 16
15 16 16 13 18 18 14 14 18 17 16 13 9 8 9 8 9 15 16 16 15 22 23 24 23 21 16 14 13 12 13 9 9 10 10 12 12 12 14 14 13 12 12 11 10 10 10 10 10 11 12 13 13 13 12 12 13 15 18 18 18 18 18 18 18 17 16 16 16 15 15 14 13 14 15 15 16 15 16 17 17 17 17 16 16 16
16 16 14 16 16 17 16 11 10 12 15 13 9 8 8 10 11 11 17 19 20 22 23 24 25 21 15 14 13 9 8 10 12 13 13 12 13 13 12 13 12 11 12 12 11 10 10 10 10 10 11 12 13 14 13 13 12 15 17 16 16 17 17 18 18 18 17 17 16 16 15 14 14 15 15 15 16 16 17 17 17 17 17 16 16 15
20 20 17 17 13 16 14 15 20 20 20 10 10 11 16 10 14 11 13 16 12 16 19 21 22 19 14 13 10 10 9 10 14 16 14 13 13 14 14 12 11 12 12 11 11 12 11 10 9 9 10 12 12 12 12 12 12 14 16 15 15 17 17 17 17 18 17 16 16 15 15 14 14 14 15 15 16 17 17 18 17 17 17 16 16 15
19 22 16 18 14 14 18 18 17 14 14 14 12 10 10 7 10 9 12 20 9 11 15 17 18 15 12 10 10 11 9 14 14 16 18 11 13 13 13 10 12 12 12 12 11 11 12 11 9 8 8 11 11 10 11 11 13 15 15 14 15 16 17 17 18 17 17 16 16 15 14 14 14 15 16 16 17 18 18 17 17 17 16 15 15 16
14 16 18 16 16 13 16 20 18 15 16 13 10 10 8 9 9 9 15 16 14 8 12 15 14 12 14 15 13 13 13 14 14 16 20 12 12 13 14 14 13 13 13 12 12 13 12 12 9 8 7 9 10 10 11 11 11 15 16 14 14 16 16 17 17 17 17 16 15 14 13 13 13 15 16 18 18 18 18 18 18 17 16 15 14 15
14 13 13 18 14 19 17 19 19 15 14 11 11 9 10 9 9 13 15 14 10 9 10 13 13 13 12 12 15 15 16 11 13 20 15 14 13 13 14 14 15 14 14 14 12 12 12 12 12 10 8 9 10 10 10 11 15 15 16 13 13 15 15 15 15 15 14 15 14 14 14 13 13 14 16 17 16 16 17 17 18 19 18 16 16 15
12 9 13 17 19 14 10 22 22 21 17 15 15 11 10 8 11 13 11 12 10 9 11 13 11 12 16 16 17 16 17 15 15 13 14 11 9 10 11 11 13 13 14 14 15 12 14 13 10 8 9 10 9 10 10 12 14 15 15 12 14 14 14 14 14 14 14 14 14 14 14 14 14 13 13 15 16 15 16 16 17 17 19 18 17 17
12 12 10 10 16 18 13 19 20 20 18 15 10 9 11 10 8 11 16 12 11 9 9 12 11 12 16 20 19 16 16 13 13 12 11 11 15 14 12 13 12 12 11 12 16 15 13 12 10 9 10 8 7 9 9 11 13 15 15 12 13 13 13 13 14 13 14 14 15 14 14 14 13 12 13 13 13 15 16 16 17 17 18 19 17 17
15 12 11 12 13 11 12 17 14 14 8 12 15 12 9 8 15 15 15 10 11 11 13 11 12 12 16 16 17 16 9 10 11 11 10 9 9 11 12 13 14 14 15 15 16 14 13 12 12 12 9 9 8 9 8 9 11 13 14 12 11 12 13 13 12 14 15 14 15 15 14 14 13 13 13 14 14 15 16 17 16 16 18 18 18 18
11 14 17 13 15 19 14 20 19 17 13 14 17 11 15 20 17 15 19 18 11 13 13 10 11 14 17 16 16 16 13 10 10 10 10 10 11 10 11 12 12 12 13 14 13 15 14 12 11 12 10 10 9 9 9 9 12 12 13 10 10 10 11 12 13 13 14 14 14 14 14 14 14 14 14 14 15 15 16 17 17 16 18 19 19 20
13 14 14 14 13 15 17 15 16 16 15 14 16 18 19 14 12 15 17 18 18 16 13 16 12 14 17 16 14 13 14 14 13 11 13 14 13 13 13 14 14 13 13 13 13 14 14 13 12 13 10 12 10 9 10 9 10 10 11 10 8 10 11 11 13 12 13 14 15 14 14 15 15 15 15 15 15 15 15 16 16 17 17 19 19 20
13 14 10 14 16 13 20 21 19 21 17 14 18 19 20 20 14 14 17 20 18 18 16 17 12 13 15 15 15 13 16 12 11 12 12 11 12 12 12 12 12 11 11 12 13 15 14 12 12 13 12 11 12 11 10 10 9 9 9 8 8 8 9 10 11 12 13 13 13 14 14 14 14 14 14 14 15 14 15 15 17 18 17 19 19 19
11 12 13 17 12 11 17 15 15 15 14 17 19 16 15 17 18 16 16 19 19 18 18 16 15 13 15 16 17 16 14 12 13 12 12 12 12 12 13 13 13 13 13 14 13 14 15 13 14 14 12 12 8 9 10 10 10 9 8 7 9 9 8 9 10 11 11 11 12 12 13 13 14 13 13 13 13 13 14 16 16 17 19 18 18 17
14 12 16 16 17 21 21 17 17 16 18 21 22 19 15 16 16 14 17 17 18 16 17 15 11 12 12 15 16 16 13 11 12 12 13 13 13 13 14 14 13 13 13 11 13 14 13 14 14 13 11 11 10 9 10 11 11 9 8 8 9 9 9 8 9 11 10 9 9 11 11 12 8 10 13 14 14 15 14 15 15 17 20 20 20 19
13 14 16 13 22 22 20 22 22 16 19 19 16 14 17 16 18 17 15 16 17 18 18 17 15 15 15 15 15 15 14 13 14 13 13 12 13 13 13 13 13 13 12 13 14 14 16 14 14 12 11 11 10 9 10 11 10 10 9 8 9 10 10 8 8 9 8 9 8 9 9 10 11 12 12 12 12 15 17 17 17 15 16 18 18 18
17 25 22 21 22 20 20 18 13 18 16 17 17 18 15 14 15 17 17 17 16 17 17 18 17 16 15 14 14 15 15 14 14 13 13 13 13 13 12 13 12 12 12 12 13 14 15 14 13 12 12 12 10 11 11 10 11 11 12 10 9 9 10 9 9 8 7 8 8 9 8 9 9 10 11 12 13 12 15 6 5 10 16 15 9 6
20 19 21 20 20 22 17 18 18 18 21 23 22 18 19 16 16 18 20 20 17 16 16 18 19 17 17 16 14 15 15 15 15 15 13 13 13 13 12 12 12 13 13 13 13 14 15 15 15 14 13 12 11 12 12 11 11 11 11 11 11 10 10 10 10 9 8 8 9 12 12 8 9 10 10 10 11 12 13 16 14 8 5 6 7 7
Wind_Speed
3 7 5 3 2 3 5 4 6 4 3 2 3 5 6 4 5 2 2 2 1 6 2 4 4 5 10 12 13 12 11 9 9 10 9 9 8 7 7 7 7 6 6 5 4 3 4 4 5 5 6 7 8 9 10 10 11 11 11 11 11 10 10 10 10 10 9 9 10 10 8 7 7 6 5 5 7 9 7 11 10 13 12 12 11 10
7 5 2 5 6 5 4 2 1 1 2 5 5 5 5 3 6 4 1 3 2 7 1 3 4 4 8 11 12 11 12 11 12 11 10 10 8 7 8 7 6 5 5 4 3 2 2 3 4 5 6 7 8 8 9 10 11 11 12 12 11 10 10 10 10 10 9 9 9 10 9 7 6 6 4 6 7 7 6 8 10 10 12 10 11 8
7 1 6 6 5 4 4 2 1 1 2 3 6 4 6 4 1 3 3 4 2 6 2 4 5 4 7 9 11 11 12 10 10 10 10 10 9 7 7 6 5 5 3 2 2 1 2 3 4 5 6 6 7 8 9 9 11 11 11 11 11 10 11 11 11 10 10 10 10 10 8 6 5 4 5 3 3 5 5 9 9 11 10 11 10 9
3 5 7 5 2 4 5 2 1 2 4 4 4 5 6 5 6 3 8 3 4 5 3 6 6 4 6 6 9 10 12 10 9 10 10 9 9 9 9 7 7 5 4 4 1 0 1 3 4 5 6 6 6 8 8 9 11 9 11 11 12 10 10 11 11 11 11 11 12 10 8 6 4 4 3 5 4 4 4 6 5 3 8 12 11 9
7 8 4 0 2 3 3 2 3 5 4 2 4 6 8 4 3 7 2 3 3 2 4 5 5 5 8 9 9 10 8 9 10 10 10 8 7 7 6 7 6 7 5 3 2 1 1 3 4 6 6 7 7 8 8 8 10 9 12 12 12 10 10 10 12 12 11 10 10 10 9 6 4 3 2 2 3 2 7 5 5 3 2 3 8 9
8 6 1 2 4 3 3 4 3 5 7 3 4 5 7 6 8 4 4 6 6 6 7 5 5 5 7 9 9 10 10 9 12 12 10 9 9 9 8 7 6 5 5 3 2 1 2 2 4 5 6 7 7 8 7 8 9 11 11 11 11 9 9 10 12 12 11 9 9 10 9 9 7 4 4 1 2 4 1 7 8 5 4 2 7 8
6 2 3 2 3 2 2 3 4 5 5 7 6 3 3 6 6 6 6 6 7 7 5 6 7 2 8 8 9 9 12 14 10 11 8 9 9 9 8 8 6 6 5 3 2 2 2 3 4 5 6 7 8 8 8 8 9 10 11 11 11 10 9 10 11 12 10 10 8 9 9 8 7 8 3 2 1 2 1 2 7 7 6 2 3 5
3 4 4 1 3 2 6 3 5 5 7 3 5 3 5 6 7 7 8 7 7 5 5 7 6 8 6 7 10 9 10 9 8 9 8 9 9 10 8 7 6 5 5 4 3 2 1 2 4 5 6 7 8 8 8 8 8 10 11 12 12 10 10 10 10 11 10 9 9 9 9 7 7 7 8 6 1 2 3 3 5 6 7 5 2 3
0 5 2 3 2 6 4 7 3 4 6 6 4 2 4 6 5 6 7 7 4 5 7 8 5 7 6 3 6 7 10 14 13 12 11 13 13 11 9 8 8 6 6 4 3 2 1 2 4 5 6 7 8 8 8 9 9 9 10 11 11 11 10 9 11 10 10 9 9 8 7 8 6 6 6 6 2 2 2 3 1 4 6 8 6 2
5 5 4 4 7 3 6 5 3 5 5 6 2 4 3 3 6 6 7 7 3 6 8 2 4 5 7 6 5 7 10 11 11 12 13 13 14 10 10 9 8 6 5 4 3 2 0 2 3 4 5 7 7 7 9 9 9 9 9 11 12 12 11 10 10 10 10 10 8 8 8 9 8 7 6 5 5 1 4 3 4 3 3 6 8 6
7 4 3 5 5 5 3 3 2 2 3 3 4 6 4 5 3 3 4 5 5 6 8 4 3 3 6 1 2 5 4 5 6 5 7 9 9 9 9 9 7 7 6 5 4 3 1 1 2 4 6 7 8 7 9 9 10 10 10 11 12 12 11 11 10 10 10 9 9 7 9 9 8 8 7 7 6 6 3 4 5 4 3 4 6 6
5 5 4 4 2 1 3 3 5 2 2 5 4 5 4 4 3 5 3 3 5 5 6 1 1 5 7 1 3 3 2 2 2 5 6 7 9 9 9 8 7 5 4 4 4 2 1 1 3 5 6 7 8 8 9 8 9 10 11 11 12 12 12 11 11 10 9 8 8 8 7 8 7 8 6 6 7 7 8 3 3 1 1 2 3 6
6 2 6 6 3 5 2 8 7 6 6 7 5 5 4 3 2 3 3 4 5 3 4 2 1 5 6 4 3 3 5 5 6 5 4 7 9 9 7 5 3 3 4 3 3 1 1 2 3 5 6 7 8 8 9 9 9 10 10 12 12 13 12 11 11 10 9 8 8 7 7 7 7 6 6 6 5 7 6 6 3 2 3 3 1 5
4 5 6 6 4 3 5 8 2 4 2 6 6 5 5 4 2 4 4 2 5 5 2 1 2 7 3 1 2 3 2 3 5 5 5 6 8 9 8 5 5 4 4 4 3 2 1 2 3 5 6 7 7 9 9 9 10 10 10 11 12 13 12 10 10 10 9 7 8 7 7 6 6 6 5 4 5 5 5 5 4 2 2 2 0 3
3 5 5 3 1 3 2 6 5 6 6 4 4 7 5 3 3 5 3 4 4 4 4 1 5 2 5 4 1 4 3 3 4 5 5 6 8 7 6 5 5 4 5 4 2 0 1 1 3 4 5 6 7 9 8 9 11 11 11 11 13 12 11 11 10 9 9 7 7 7 7 6 5 5 5 4 3 4 4 4 4 2 2 2 2 1
4 5 6 5 4 2 4 4 4 4 6 1 3 4 6 2 3 6 5 6 6 5 4 5 3 3 3 2 3 2 4 4 4 6 7 8 8 6 5 5 5 5 5 4 2 2 1 1 2 4 5 6 7 8 8 10 10 11 11 11 12 12 11 10 10 9 9 8 7 7 7 7 6 5 4 4 3 3 2 2 2 3 3 1 1 1
3 2 7 6 3 5 6 3 3 5 4 4 6 2 6 4 5 3 3 1 3 6 3 2 5 2 4 7 5 5 5 5 5 7 8 9 8 6 6 5 6 5 5 4 3 1 1 1 2 4 6 7 7 8 8 8 10 11 11 11 12 11 11 11 10 9 8 8 8 8 7 6 6 6 5 5 5 4 3 2 1 1 3 2 1 1
7 4 5 4 5 4 3 3 4 5 5 6 4 6 2 1 5 3 4 2 4 4 1 3 5 6 4 1 5 7 6 7 7 8 8 9 9 8 6 5 4 3 3 1 1 1 0 1 2 5 5 7 8 8 8 8 10 10 10 11 11 11 11 10 10 9 8 8 8 7 7 7 6 6 6 5 6 4 4 4 3 1 0 3 2 2
3 4 7 3 2 6 3 3 4 4 3 6 6 3 7 1 4 4 2 3 4 3 3 0 5 5 4 1 5 8 7 8 8 8 9 9 8 8 7 7 6 5 3 3 4 2 2 0 3 4 6 7 8 7 7 8 10 10 10 11 10 11 10 10 9 9 8 8 7 6 7 7 7 6 6 5 5 6 6 5 5 4 1 1 2 2
2 5 4 5 4 3 4 4 4 5 7 3 4 4 2 5 4 2 2 5 3 5 3 1 4 1 4 4 2 2 7 7 8 8 9 8 8 7 6 5 6 6 4 4 4 3 1 1 3 5 6 7 8 8 7 8 9 10 10 11 11 10 10 10 9 8 8 7 7 7 8 8 7 6 6 6 6 6 6 6 6 6 5 2 2 2
1 0 4 8 2 3 6 4 2 3 2 3 4 2 3 2 2 4 2 3 4 5 3 4 4 2 6 6 5 2 2 6 7 7 7 8 7 7 5 3 2 1 2 3 2 2 1 1 2 4 5 6 7 7 7 8 10 10 10 11 12 11 10 10 9 8 7 7 7 8 8 8 8 7 6 6 6 6 6 6 6 6 6 5 4 3
2 2 4 2 4 6 4 5 5 2 3 5 5 2 5 3 2 4 1 4 2 3 4 5 5 3 7 4 4 3 2 3 5 7 6 7 7 6 4 4 3 2 2 3 3 2 1 1 3 4 5 6 7 7 9 9 9 10 10 11 11 11 10 10 9 8 7 7 6 7 7 8 7 7 6 6 5 6 6 5 5 5 6 7 6 5
3 5 4 3 3 4 5 5 3 1 2 4 5 4 5 2 3 3 5 2 3 1 4 4 4 1 6 5 3 2 2 4 3 5 6 6 5 5 5 4 2 2 2 3 3 2 1 1 3 4 5 7 9 8 8 9 10 10 11 11 11 11 10 10 9 8 7 7 7 7 7 7 7 7 7 7 5 5 5 5 5 5 5 6 7 7
2 4 2 2 1 4 4 4 3 3 3 6 5 3 3 2 3 4 3 3 5 2 3 2 4 2 6 4 1 1 2 4 3 4 6 6 4 5 5 4 4 3 4 4 3 2 1 1 2 4 6 7 8 8 9 9 10 10 10 10 10 10 11 10 9 8 8 8 8 7 7 7 6 6 6 5 4 4 4 4 4 4 5 4 5 6
4 1 5 3 2 3 7 5 6 2 4 5 4 1 1 1 2 4 5 2 5 2 3 5 5 2 5 3 1 1 3 5 6 6 6 6 5 5 5 4 3 3 4 5 4 3 2 2 3 4 6 8 8 9 9 9 10 10 10 9 10 9 10 9 8 8 8 8 8 7 7 7 6 6 5 5 5 4 4 4 4 4 5 4 5 5
3 3 3 4 4 3 3 2 1 0 1 2 1 2 3 2 3 3 3 1 7 3 1 4 5 4 5 1 0 1 2 3 4 6 7 6 6 6 5 4 4 4 4 4 4 3 3 2 3 4 6 7 9 9 9 9 9 9 9 9 8 8 9 9 8 8 8 7 7 7 7 6 7 7 6 5 5 6 5 4 4 5 5 5 6 6
2 1 4 3 4 4 3 5 3 4 2 4 1 3 3 3 4 3 4 6 4 2 6 4 5 5 9 7 5 2 2 3 5 6 7 7 8 7 5 4 4 4 4 5 4 3 2 2 2 5 7 8 9 8 8 8 8 9 9 10 10 8 8 8 8 8 7 8 7 7 7 7 7 7 6 5 5 4 4 4 4 5 6 5 6 5
3 5 1 4 4 6 6 6 4 5 4 4 4 4 2 4 2 3 5 4 3 6 6 7 4 1 8 8 4 4 2 3 4 5 6 6 5 6 5 4 5 5 5 4 5 4 3 2 3 5 7 9 8 8 7 7 7 8 9 10 10 9 8 7 7 8 7 7 6 6 7 7 7 7 6 4 5 4 3 4 4 5 6 5 5 5
5 4 3 4 5 6 6 8 6 6 6 5 5 5 5 4 5 7 6 5 1 5 8 6 7 7 9 9 6 4 3 3 3 4 5 4 4 3 4 6 6 5 5 5 5 4 3 3 4 5 7 7 7 7 6 6 7 8 8 9 10 10 9 8 7 7 7 7 7 7 6 6 6 6 6 7 6 4 5 5 5 6 6 6 6 6
4 5 4 6 7 6 7 7 6 8 7 8 8 8 5 8 9 9 6 6 3 7 9 8 10 12 12 10 8 4 2 2 2 2 3 5 6 6 6 6 5 5 4 4 3 3 2 1 3 6 7 7 7 6 6 6 7 8 8 9 10 10 10 8 7 8 7 7 7 7 7 6 5 5 6 7 6 6 6 6 6 5 6 6 6 6
4 1 2 5 7 8 4 5 5 6 7 9 9 4 2 1 2 4 2 2 2 7 7 10 11 11 10 4 3 1 2 2 3 6 6 6 5 6 6 6 5 5 4 3 3 2 1 2 4 6 7 7 6 6 5 6 6 7 8 8 9 10 10 9 7 7 7 7 6 6 6 6 6 5 5 6 6 7 8 7 6 6 6 5 5 5
5 3 2 5 5 7 2 5 5 7 9 7 6 4 4 4 3 5 4 6 6 5 3 1 4 7 2 5 2 3 4 5 6 5 5 5 5 5 6 5 6 4 3 3 3 2 3 3 5 6 7 6 5 5 5 5 6 7 8 9 9 9 10 8 7 7 7 6 6 6 6 6 7 6 6 6 7 8 8 7 6 5 6 6 6 7
5 5 3 3 6 6 1 6 7 10 8 7 4 4 4 4 1 1 3 5 5 3 3 4 4 6 4 0 3 4 4 5 5 5 4 5 4 5 5 5 5 3 3 2 2 2 2 3 4 5 5 5 5 5 5 6 6 7 8 9 8 9 9 9 8 8 7 7 6 6 6 6 6 6 6 7 7 8 7 6 6 7 7 6 6 6
6 7 6 3 5 7 6 6 8 8 7 2 2 3 2 3 7 5 3 6 11 11 6 5 8 4 2 2 4 4 4 4 3 1 2 5 4 3 4 4 3 1 2 3 3 2 1 2 3 4 5 4 4 4 4 5 5 6 8 8 8 9 9 9 8 8 7 7 6 6 6 6 6 6 6 7 7 7 7 7 8 7 6 6 6 6
7 6 5 4 5 6 6 6 7 8 3 5 1 0 2 2 3 7 9 9 7 13 14 14 13 11 8 6 5 4 2 0 1 3 3 3 4 4 4 3 3 3 3 4 4 2 1 1 1 3 5 6 5 4 4 4 5 7 7 7 7 8 8 8 8 7 7 7 7 6 6 6 6 6 7 7 7 7 7 8 7 7 6 5 5 6
6 6 3 4 5 5 5 2 4 1 7 6 2 2 2 3 4 5 9 11 9 10 12 12 11 10 7 5 4 2 2 0 3 5 6 4 4 4 4 3 3 4 4 3 4 4 3 1 1 4 5 5 5 4 4 5 5 6 7 6 7 7 7 8 8 8 7 7 6 6 6 6 6 7 7 6 6 7 7 7 7 7 6 5 5 4
10 8 5 5 3 6 4 5 7 9 10 2 4 4 5 1 2 3 5 7 2 4 7 8 9 9 6 3 2 3 2 3 5 6 7 4 3 4 3 2 3 5 5 4 4 4 4 2 3 3 2 4 4 4 4 5 5 6 6 6 6 7 7 7 8 8 7 7 6 6 6 6 6 6 6 7 7 7 7 7 7 6 5 5 5 4
8 10 4 7 3 4 6 6 5 4 5 1 3 4 2 1 4 4 5 8 1 0 3 5 8 8 4 1 3 4 3 5 5 2 9 5 3 2 2 3 5 5 5 6 5 5 5 4 3 2 1 4 4 4 4 4 5 6 6 6 6 6 6 7 8 7 6 6 6 5 5 5 5 6 7 7 7 8 7 7 6 6 5 5 5 5
6 7 8 5 5 3 5 7 5 6 3 6 3 3 2 1 2 4 6 4 4 1 0 3 5 4 3 2 5 5 4 4 3 3 9 6 3 2 3 5 6 6 6 6 6 6 6 5 3 1 1 2 3 3 4 5 4 6 6 5 5 6 6 7 6 6 7 6 6 5 5 5 5 6 6 6 7 7 8 8 7 7 5 5 4 4
5 4 4 7 6 6 6 6 7 2 1 3 3 3 3 0 1 4 5 2 3 2 1 1 2 2 1 2 4 5 4 3 1 8 6 7 3 2 2 5 7 7 6 6 5 5 6 5 5 2 1 3 3 3 4 5 5 6 6 4 4 6 6 6 6 6 6 5 5 5 5 5 5 5 6 6 6 7 6 7 7 7 6 5 5 5
3 2 4 7 6 5 5 6 6 5 3 6 7 5 2 2 3 4 4 3 3 3 1 0 2 1 3 4 4 4 3 2 6 6 7 4 3 3 3 3 6 6 6 7 7 7 6 6 3 1 1 3 2 3 3 4 5 5 5 4 5 6 6 5 5 5 5 5 5 4 5 5 5 5 5 5 5 6 6 6 6 6 7 5 4 4
4 4 3 3 6 7 3 6 5 6 4 5 4 1 4 4 2 3 5 5 5 3 1 1 0 3 4 4 3 3 3 6 6 5 4 3 1 2 4 5 5 5 4 5 9 8 5 5 4 3 1 1 0 2 2 4 4 5 5 4 5 5 5 5 5 4 5 5 5 5 5 5 5 4 4 5 5 5 6 6 5 5 6 5 3 4
4 3 3 3 2 1 2 6 4 5 1 4 2 4 2 3 2 4 7 3 4 5 2 2 2 2 4 3 5 4 1 3 4 4 3 3 2 3 4 6 6 7 7 7 8 7 5 4 4 2 2 0 1 2 2 3 4 5 4 4 4 4 5 4 4 6 6 6 6 5 5 5 5 5 4 5 5 6 7 6 6 6 6 6 5 5
1 4 4 3 3 6 3 4 4 2 3 2 5 2 3 4 7 7 8 8 4 5 5 3 3 3 5 4 4 5 5 3 4 3 3 3 4 4 5 5 6 5 6 6 6 7 6 3 2 2 1 2 1 2 1 2 3 4 4 4 2 3 3 4 5 5 5 5 5 5 5 5 5 5 5 5 5 6 7 7 6 6 6 6 5 5
3 4 3 4 2 3 3 4 2 4 4 1 4 5 8 8 7 8 8 9 8 7 5 6 4 4 6 6 5 5 5 5 5 4 4 3 5 6 5 6 6 6 6 6 6 7 6 4 3 3 2 3 2 2 2 1 3 3 3 2 1 2 3 3 4 4 4 5 5 5 5 5 5 5 4 4 5 6 6 7 7 6 6 6 6 6
1 3 1 5 5 4 9 10 9 10 8 5 5 6 8 9 8 7 8 9 8 9 6 7 5 4 6 7 6 5 6 4 5 5 5 4 5 5 5 5 5 5 5 5 6 7 6 3 2 3 3 3 3 4 3 2 1 3 2 0 1 0 2 2 3 4 4 4 4 5 4 4 4 5 5 5 4 5 5 6 7 7 7 6 6 5
1 2 4 6 1 3 3 4 6 5 5 7 9 8 8 9 9 7 6 7 8 9 9 8 7 5 6 7 8 6 5 5 5 4 4 5 5 5 6 6 6 6 6 6 6 7 6 4 4 4 3 3 1 2 2 2 3 2 1 0 2 2 0 2 2 2 4 3 2 3 4 5 5 3 4 4 4 4 5 6 6 7 8 7 7 6
4 2 6 7 8 8 8 9 6 6 9 9 9 9 7 7 8 5 5 6 7 8 9 8 5 6 5 7 8 7 6 5 5 5 5 5 5 5 6 6 6 6 6 5 6 7 6 6 5 4 3 3 2 1 1 2 3 1 0 1 1 2 2 1 2 4 3 2 1 2 2 2 2 4 3 4 5 5 5 6 6 6 8 8 8 8
3 3 4 6 8 10 11 13 12 8 9 10 8 6 5 6 7 8 8 9 8 9 9 9 8 8 7 8 7 7 7 6 6 6 5 5 5 5 5 5 6 6 5 6 7 7 7 7 6 4 4 3 2 2 3 2 3 3 3 1 2 2 2 0 1 2 2 2 1 1 1 1 3 3 3 3 3 6 7 7 7 6 6 8 7 7
6 10 10 10 9 8 7 7 5 6 5 5 5 6 7 7 7 8 9 9 9 8 7 9 9 8 8 7 7 7 8 6 7 6 6 5 5 5 6 5 5 5 6 5 5 7 7 7 6 5 5 5 3 3 4 3 3 3 4 2 1 2 3 2 2 2 0 1 1 2 1 2 1 2 2 3 2 2 6 5 4 5 6 5 5 3
9 9 8 7 8 8 8 10 9 9 9 11 12 9 9 9 8 9 11 11 10 8 7 9 10 9 9 8 7 8 8 7 7 7 6 5 5 5 5 5 5 5 5 6 6 7 8 8 8 7 6 5 3 4 4 4 3 3 3 3 3 3 3 2 3 2 2 1 1 4 4 1 2 2 1 2 2 2 2 6 4 0 1 5 4 3
Wind_Direction
226 200 190 184 161 101 58 13 24 38 340 328 251 274 271 305 278 72 212 99 243 270 284 296 271 200 182 173 170 170 172 168 157 161 156 151 148 143 133 119 109 96 99 95 92 71 64 45 40 39 40 31 34 28 22 17 16 14 10 6 6 2 358 358 353 348 342 342 332 336 337 331 316 284 220 198 213 203 212 194 182 186 191 207 212 201
234 238 89 56 52 58 64 62 74 122 268 296 298 282 265 205 285 92 94 169 193 272 206 247 230 195 173 170 170 170 175 174 175 172 168 158 151 144 136 132 122 123 109 123 126 103 66 51 43 44 37 28 23 21 17 14 13 8 8 7 2 4 357 2 356 345 340 340 333 325 329 325 317 316 249 206 224 216 209 193 184 185 198 194 209 210
211 188 82 73 76 101 105 87 58 314 215 228 285 301 286 263 324 152 173 186 211 254 265 235 228 173 159 176 175 179 187 179 183 180 174 161 154 155 141 125 128 120 110 114 125 91 73 51 38 41 33 28 21 10 14 8 5 5 5 3 0 2 359 360 359 348 343 335 331 329 327 327 327 337 322 244 213 184 171 191 194 192 190 198 219 210
191 109 96 94 118 128 113 120 113 190 250 278 265 253 271 31 305 247 164 180 193 253 256 230 242 157 166 175 185 192 192 185 182 181 174 170 166 164 158 153 144 152 159 189 153 61 34 29 36 30 30 25 13 9 7 4 4 1 2 358 357 359 359 0 359 351 340 336 330 334 331 332 354 347 23 54 110 103 140 145 96 63 193 193 206 202
88 89 80 1 225 234 120 144 239 263 263 151 302 303 287 312 271 280 47 210 170 200 253 221 240 209 186 186 185 188 189 181 181 178 179 178 175 160 150 154 166 155 170 200 176 192 348 17 26 26 27 17 11 6 0 1 0 357 356 355 354 356 359 1 358 355 344 342 342 342 346 346 343 10 43 53 25 121 125 110 122 126 40 222 192 195
93 70 14 211 171 179 201 175 34 332 282 292 147 324 329 324 288 240 234 234 225 220 212 227 257 238 196 200 200 175 188 187 187 187 183 179 179 164 174 172 167 180 177 189 170 295 329 2 13 25 16 15 8 360 358 357 355 353 353 351 353 356 355 4 359 356 351 349 347 347 352 356 350 1 2 342 48 350 46 143 141 131 126 199 211 198
74 107 267 187 137 140 326 18 42 291 303 275 82 329 319 293 289 279 242 240 250 282 127 215 269 295 153 203 197 192 195 202 195 206 190 194 194 183 184 177 182 188 168 179 199 238 284 0 9 12 15 6 6 354 353 354 351 350 351 350 352 355 352 3 358 356 357 351 350 350 348 2 355 341 340 2 114 136 9 110 136 131 123 171 194 176
132 126 151 165 189 232 231 161 81 319 299 2 45 20 270 265 254 255 263 241 281 67 174 224 251 276 250 203 189 192 219 186 201 155 185 243 222 191 183 182 175 186 174 185 199 220 293 11 9 7 6 6 2 355 352 347 351 347 349 350 351 353 352 1 357 355 0 353 353 346 348 357 358 352 339 316 199 87 38 359 155 140 131 124 257 152
75 133 170 175 230 254 50 50 45 332 304 23 17 305 282 279 283 274 255 258 281 290 256 204 221 258 267 110 160 190 221 206 187 196 202 200 215 192 186 186 178 190 177 198 199 210 319 8 10 5 4 5 2 357 350 347 346 344 343 347 349 350 351 357 354 353 357 354 351 352 347 345 357 0 352 335 342 146 103 288 337 147 140 135 167 187
94 9 53 344 282 59 74 63 30 348 297 77 330 248 251 245 252 256 256 254 249 258 270 289 180 274 284 160 205 198 236 229 217 197 212 216 224 195 184 181 179 174 179 187 213 216 161 8 10 3 4 4 4 357 348 346 343 343 342 346 349 347 347 354 350 349 351 351 352 352 354 344 352 354 356 359 355 88 179 170 322 157 185 163 144 141
97 85 16 25 21 29 60 86 31 322 344 326 226 244 214 227 237 219 257 289 274 245 257 116 92 293 282 312 242 206 237 259 229 190 188 195 192 186 179 179 173 179 178 189 191 205 170 97 357 6 6 357 358 356 352 349 347 347 344 347 347 345 347 345 345 346 345 344 351 351 348 353 347 352 356 358 8 351 191 150 234 242 203 195 129 119
161 156 202 68 14 57 281 198 180 189 230 236 246 294 274 219 229 230 223 228 254 259 89 279 158 208 263 153 227 82 80 222 246 214 182 188 176 180 172 181 176 166 185 179 218 193 93 321 4 6 358 353 353 353 353 351 348 348 344 345 343 342 345 341 339 342 341 341 344 344 344 346 349 350 354 7 2 354 356 117 164 24 186 170 131 124
182 148 84 129 62 337 202 276 176 198 204 231 250 240 274 280 239 270 209 230 224 291 72 57 253 253 235 294 48 172 219 204 222 242 211 189 186 165 161 148 145 169 215 205 233 279 297 348 3 359 348 349 353 352 351 349 346 347 345 343 341 339 341 341 339 336 338 338 339 339 340 343 342 345 350 359 9 1 1 349 44 89 12 63 98 129
127 119 189 123 176 38 308 282 321 236 5 334 324 339 284 294 299 290 284 340 295 119 53 338 8 260 315 146 54 313 196 203 192 217 220 185 159 161 152 185 187 191 209 227 231 260 345 2 4 351 345 351 351 350 349 346 346 349 344 344 344 343 347 349 341 336 336 336 338 338 336 336 332 338 344 352 4 11 2 356 6 44 69 144 214 153
285 191 142 284 194 27 23 10 6 325 306 5 342 294 322 311 316 287 284 287 339 346 120 119 247 2 300 70 331 65 85 167 171 193 166 148 157 159 167 176 196 209 212 224 233 165 321 37 0 346 348 351 351 348 346 344 346 346 342 342 342 344 347 343 341 336 337 337 336 337 337 333 330 328 329 334 356 13 4 4 351 11 56 67 56 346
304 321 75 40 48 351 58 47 348 327 265 175 335 274 258 2 356 286 10 320 329 322 274 150 291 2 329 135 125 141 131 155 166 167 166 165 165 167 176 188 213 215 222 227 210 202 136 17 350 344 354 353 352 345 344 344 346 343 344 342 341 339 340 340 339 336 334 332 330 330 332 332 330 316 315 312 330 336 354 2 5 7 3 8 60 2
236 205 101 100 81 66 57 30 55 334 301 46 251 310 19 358 284 281 198 10 248 247 260 28 276 253 167 174 156 167 161 160 169 168 177 169 172 184 204 209 216 222 218 204 221 190 132 305 340 354 359 353 349 344 346 345 346 343 343 341 341 340 338 339 337 332 327 326 328 328 326 326 324 315 308 308 311 315 319 308 359 27 335 345 5 21
299 45 128 160 153 100 44 37 61 34 338 284 285 46 37 302 314 280 311 155 237 275 9 303 310 309 303 109 165 171 199 174 181 180 187 179 186 203 216 213 219 242 263 225 240 185 184 308 354 358 3 349 346 345 341 345 344 343 345 343 337 342 341 337 333 332 328 324 325 322 323 324 321 313 310 296 291 294 297 295 276 183 328 319 348 22
315 264 149 188 2 126 159 205 168 104 7 1 15 35 276 220 204 156 258 293 313 310 319 157 317 277 295 60 185 187 204 189 193 195 196 200 202 209 198 199 207 215 214 215 220 219 221 357 352 13 355 341 346 345 342 343 343 345 348 344 341 341 339 338 336 334 329 328 326 323 322 319 314 312 307 299 291 289 281 275 277 278 258 201 314 331
195 300 123 155 213 132 230 259 260 148 135 114 170 169 37 267 342 308 14 322 290 299 283 126 266 350 76 27 330 235 191 197 195 200 207 204 200 204 209 200 196 195 209 225 218 219 145 359 6 1 348 340 347 346 349 342 344 344 345 343 342 340 338 338 337 337 332 337 330 330 325 317 316 311 305 300 298 292 279 276 271 268 265 232 209 241
349 118 309 122 147 192 230 204 306 358 320 189 224 331 149 43 354 291 246 326 333 323 320 334 313 55 55 15 356 343 229 199 204 211 208 205 203 201 200 200 213 202 202 222 221 192 168 344 3 355 341 342 344 348 350 340 347 342 343 341 343 342 337 336 337 336 334 331 330 327 324 323 319 314 301 298 295 287 283 274 270 265 266 254 242 218
279 229 289 299 195 223 78 56 40 7 353 321 330 343 341 325 270 277 124 148 300 288 342 303 314 326 80 35 9 351 335 248 216 221 215 201 201 199 196 206 217 213 187 203 189 215 268 345 348 342 335 342 345 351 347 346 341 345 342 340 342 339 339 335 333 332 331 334 332 327 325 321 316 306 306 300 291 282 283 283 275 270 258 258 250 234
324 315 280 262 312 0 71 76 48 55 253 326 308 357 346 11 285 296 314 38 263 166 314 291 302 27 74 73 14 345 301 283 258 229 224 202 205 203 211 209 185 228 234 193 204 190 222 334 335 325 326 336 343 349 343 348 343 344 341 341 342 340 339 334 331 330 328 329 328 328 322 317 314 312 307 301 293 287 287 287 286 272 265 259 254 244
208 268 277 235 261 141 136 129 142 166 228 245 220 263 254 314 1 331 332 354 307 294 257 269 283 51 105 107 64 228 273 270 252 238 224 203 205 213 226 204 210 196 188 190 183 205 217 262 281 299 336 342 353 344 346 347 346 344 344 345 344 339 337 334 334 330 331 329 325 326 325 324 322 309 305 303 299 294 290 292 284 277 262 259 264 265
256 116 291 305 256 194 178 184 200 180 242 258 292 90 326 306 315 310 296 289 281 322 322 307 295 11 112 110 164 235 241 239 223 206 220 221 209 233 238 218 214 212 203 202 203 201 218 263 301 323 345 340 354 337 354 347 346 342 348 349 344 338 336 334 335 334 334 330 325 329 332 334 329 325 323 316 317 315 308 299 295 292 291 282 270 262
274 353 290 306 313 316 312 290 354 220 241 310 298 214 197 162 149 237 259 252 292 88 227 270 283 351 21 122 304 220 258 243 216 207 203 228 244 242 238 228 227 228 230 222 208 202 231 280 320 333 343 347 342 344 348 349 346 350 355 353 348 341 337 336 334 335 334 330 330 334 337 337 332 333 326 322 311 308 304 307 303 296 289 293 291 285
308 331 295 313 316 327 340 325 11 302 298 277 270 238 231 189 198 252 285 269 311 31 288 278 255 305 319 335 343 329 242 251 209 199 214 219 229 245 251 238 236 237 238 222 211 205 197 254 287 320 338 339 338 347 346 346 350 357 355 354 355 356 343 337 334 333 339 331 336 338 336 330 332 331 322 317 312 307 321 343 344 314 300 290 279 271
273 279 215 278 289 306 318 308 320 275 282 263 280 274 255 158 174 210 253 303 28 306 278 66 29 320 312 327 338 326 272 244 246 236 228 234 242 248 237 228 226 242 233 213 200 200 224 244 300 325 337 336 339 342 342 341 348 357 356 354 356 358 352 342 332 335 340 333 335 346 336 330 328 324 327 328 301 313 340 344 326 319 315 312 305 294
293 295 75 270 267 286 299 296 288 272 267 263 240 187 198 170 152 191 229 259 267 274 293 358 335 303 297 316 337 309 315 269 250 242 246 260 264 247 243 244 245 247 238 224 205 202 200 252 330 334 334 335 332 337 339 338 344 351 350 353 351 359 352 352 341 339 343 342 340 341 338 331 329 333 328 316 307 334 355 346 342 343 341 327 329 325
288 276 294 266 285 277 289 287 277 272 276 275 275 260 213 167 206 211 239 262 230 243 273 306 306 292 290 297 303 305 289 289 263 251 242 237 243 252 254 253 254 258 261 252 236 218 219 271 320 326 327 333 336 340 334 339 342 347 343 350 350 352 356 357 358 345 346 344 346 340 339 336 333 340 329 321 328 336 329 325 335 340 338 340 339 328
265 269 145 278 284 276 273 275 269 270 283 280 282 279 131 155 246 247 307 288 26 289 268 274 280 283 280 277 291 150 192 223 237 239 244 251 255 251 255 254 259 272 273 253 235 225 221 265 319 328 332 351 330 340 331 338 342 338 342 348 349 351 355 358 1 353 344 348 350 342 339 340 337 342 333 332 336 340 337 330 327 330 334 340 348 330
215 274 233 269 285 287 203 276 277 286 287 276 266 258 169 149 237 193 208 202 193 217 97 180 253 256 253 119 174 169 195 215 230 237 238 242 243 248 257 268 271 274 268 260 227 236 271 303 331 339 347 334 339 342 333 337 341 336 340 352 347 349 351 357 356 349 341 343 345 341 339 341 339 338 336 334 340 342 335 336 332 328 334 344 358 353
245 263 264 274 280 279 355 275 301 304 295 262 239 249 206 194 257 76 247 185 202 155 189 243 277 2 21 138 273 209 207 226 239 244 246 247 259 270 260 268 281 279 256 203 199 236 262 322 337 342 344 332 352 337 339 337 338 343 342 347 343 348 351 354 2 356 359 357 350 349 345 345 343 340 342 342 344 337 337 343 344 352 344 348 344 353
260 267 271 282 275 287 299 298 301 291 290 357 38 324 208 204 187 187 227 209 210 196 237 289 302 324 257 234 259 282 234 235 259 278 314 309 301 265 260 267 279 263 170 165 158 194 201 289 338 358 345 346 338 346 336 320 333 338 335 342 344 349 353 357 5 5 8 7 0 358 355 345 341 343 347 345 340 342 343 356 360 353 349 341 343 354
252 249 261 264 270 274 298 294 292 282 290 23 243 31 263 278 245 242 268 264 225 211 236 261 270 274 275 264 266 277 329 68 227 265 252 237 252 286 295 265 228 177 168 159 165 174 178 119 16 344 355 0 355 328 324 323 342 334 337 343 350 351 353 0 9 16 14 13 9 6 1 355 359 353 352 348 345 341 356 1 356 359 356 348 347 354
247 251 266 252 261 274 267 262 281 299 1 318 113 99 77 252 251 265 266 251 242 231 229 245 263 280 294 263 238 222 206 242 264 247 241 226 235 259 264 252 184 171 176 168 160 160 167 170 5 4 3 357 345 345 342 350 345 333 338 349 355 349 360 3 12 17 19 12 15 13 13 12 11 4 359 352 345 358 5 357 359 1 359 350 353 5
246 257 253 266 226 266 275 268 262 300 300 218 175 181 192 340 189 273 319 320 111 234 241 254 272 287 302 270 239 175 169 233 262 255 175 196 203 234 255 274 160 158 155 144 146 146 134 106 109 48 9 358 9 0 5 353 343 338 348 355 357 354 0 8 15 16 21 14 18 18 13 12 11 18 10 6 7 7 8 4 7 9 3 356 4 10
231 240 237 249 229 245 274 282 278 285 292 0 90 81 172 308 315 303 292 278 105 49 235 273 292 309 306 178 179 171 162 251 254 287 111 128 135 225 187 164 145 145 148 144 140 139 136 135 125 121 10 9 26 31 3 4 350 345 356 1 356 2 4 13 18 15 20 20 21 24 18 13 9 14 17 23 18 12 8 12 13 13 7 5 359 12
224 230 243 246 249 233 257 264 270 281 294 360 47 93 109 226 279 274 270 281 94 79 60 296 307 316 307 174 157 170 207 257 279 74 106 97 100 128 184 172 161 157 157 153 157 155 154 148 145 112 25 8 25 18 13 359 347 360 0 3 2 10 9 15 18 15 18 23 20 20 25 19 19 17 19 20 23 19 12 4 11 7 8 7 11 22
184 204 223 235 246 248 256 254 261 247 292 75 292 309 354 91 263 265 279 53 119 24 77 305 314 344 123 151 164 199 232 246 287 74 80 80 63 113 198 172 166 167 165 156 161 159 148 155 165 181 29 12 16 359 11 344 359 8 8 358 13 15 11 12 13 15 15 21 28 28 28 31 23 20 16 15 9 2 8 10 2 8 354 12 15 18
176 207 227 244 246 229 222 268 284 278 285 348 357 4 100 151 233 263 300 5 8 5 23 305 348 77 146 169 197 245 215 344 67 94 90 103 125 142 160 177 171 177 174 166 156 145 166 177 199 11 9 358 0 337 4 343 357 8 15 4 19 17 13 10 15 15 16 18 25 24 32 23 17 17 16 15 6 357 352 14 8 6 355 354 24 17
233 251 225 248 244 251 247 249 260 281 340 346 307 293 149 192 240 313 10 334 318 345 298 224 294 154 178 196 212 268 37 92 105 111 132 122 107 98 154 162 166 161 150 148 149 174 176 168 176 184 237 329 31 314 348 348 351 9 11 21 24 18 16 18 16 21 24 21 27 19 20 22 17 12 15 13 7 7 12 15 15 14 17 357 357 19
277 250 245 212 173 220 212 251 237 251 132 211 177 167 205 262 26 340 320 298 330 326 312 261 274 177 197 210 216 249 181 153 157 169 159 168 167 161 155 169 179 177 167 159 168 177 185 188 200 224 252 135 248 302 328 343 339 9 355 39 20 26 29 27 27 33 32 23 24 30 27 33 23 23 19 18 22 27 23 22 27 30 31 21 24 28
47 259 258 251 194 284 220 220 242 35 57 165 221 277 182 265 346 338 322 307 304 299 290 284 258 233 207 236 222 222 232 212 178 173 192 190 184 163 169 175 185 188 177 177 177 171 189 225 225 251 212 237 250 298 311 322 333 10 356 43 26 31 42 35 43 36 42 42 32 25 46 42 44 33 30 32 29 28 29 29 25 33 32 33 34 38
119 284 342 299 169 236 284 303 17 359 348 351 255 277 299 296 286 295 300 289 292 274 275 280 291 223 213 224 229 233 231 221 234 194 212 197 184 187 179 184 187 191 185 174 179 168 190 216 214 245 235 230 231 263 288 292 320 349 3 48 278 55 43 37 41 44 41 40 42 27 29 53 52 45 35 34 30 15 21 22 18 24 29 35 41 42
185 295 343 274 275 299 276 267 287 286 280 281 255 259 282 295 296 281 286 292 275 279 277 278 287 248 218 214 228 213 232 232 220 201 211 206 199 182 189 182 185 186 186 175 173 176 200 221 226 241 253 228 231 261 272 275 285 307 31 146 150 334 59 28 37 36 41 39 45 39 34 27 46 45 27 14 19 25 24 22 25 22 21 25 27 31
171 216 241 264 24 300 277 156 230 256 268 268 280 279 266 270 277 277 284 281 287 282 270 262 274 255 221 205 216 229 222 215 215 205 192 196 198 191 188 194 189 195 192 198 183 176 197 210 222 227 234 265 203 258 263 209 224 229 81 14 210 163 299 49 359 18 40 6 35 64 46 36 15 26 55 22 21 29 27 27 30 30 23 21 19 20
194 120 268 261 270 263 275 287 268 259 258 259 263 272 265 263 265 247 230 261 284 283 271 269 258 246 219 214 213 219 221 199 211 208 200 199 203 199 199 199 197 194 200 204 178 188 204 206 234 221 210 233 206 242 207 201 220 172 285 183 191 213 161 234 39 337 27 344 1 25 25 64 219 282 48 41 33 29 28 27 26 43 33 21 16 11
45 168 279 303 285 283 279 269 267 272 267 259 254 243 256 282 293 298 306 300 290 279 264 250 238 241 220 226 211 213 215 199 204 207 206 202 203 205 203 200 199 206 194 192 181 192 214 209 219 236 211 234 219 153 196 190 207 177 198 221 194 222 219 169 96 281 12 311 31 38 10 23 37 23 16 49 73 66 41 29 21 25 61 43 29 22
263 261 264 266 263 264 266 286 322 294 290 285 264 279 292 295 282 285 295 292 281 271 259 243 229 226 231 231 220 208 214 204 193 194 204 207 209 206 205 201 200 203 200 198 189 197 212 217 222 218 220 225 184 191 200 189 198 188 207 180 189 195 229 220 230 268 240 314 38 23 0 8 58 41 40 26 33 105 113 50 21 15 18 61 94 31
248 269 286 273 274 270 290 304 302 296 285 282 291 288 281 286 287 287 295 301 299 276 254 236 224 209 213 216 219 217 210 208 187 186 197 202 205 204 207 203 202 199 205 189 197 200 208 213 214 217 213 230 180 204 198 199 195 189 196 183 193 199 245 248 242 237 235 225 61 33 328 354 21 38 13 47 12 21 123 150 124 31 68 56 90 105